Location: Unspecified
(34.4088°N, 0.0000°E)
Time: 18:19:48
(UTC+00:00)

NNS O-19 - Visible Passes

Search period start: 04 April 2026 00:00
Search period end: 14 April 2026 00:00
Orbit: 940 x 1195 km, 90.0° (Epoch: 29 March)

Date Brightness Start Highest point End Pass type
(mag) Time Alt. Az. Time Alt. Az. Time Alt. Az.
4 Apr 7.2 02:36:42 50° NNE 02:36:42 50° NNE 02:41:35 10° N visible
4 Apr 8.3 04:23:19 13° WNW 04:23:19 13° WNW 04:25:21 10° NW visible
5 Apr 8.4 01:42:51 25° ENE 01:42:51 25° ENE 01:47:00 10° NNE visible
5 Apr 7.5 03:29:29 33° NW 03:29:29 33° NW 03:33:51 10° NNW visible
6 Apr 7.2 02:35:38 51° N 02:35:38 51° N 02:40:30 10° N visible
6 Apr 8.4 04:22:15 12° WNW 04:22:15 12° WNW 04:23:32 10° NW visible
7 Apr 8.3 01:41:48 28° NE 01:41:48 28° NE 01:46:05 10° NNE visible
7 Apr 7.6 03:28:25 30° NW 03:28:25 30° NW 03:32:36 10° NNW visible
8 Apr 9.2 00:47:56 11° ENE 00:47:56 11° ENE 00:49:06 10° NE visible
8 Apr 7.2 02:34:34 50° N 02:34:34 50° N 02:39:23 10° N visible
8 Apr 8.6 04:21:11 10° WNW 04:21:11 10° WNW 04:21:12 10° WNW visible
9 Apr 8.1 01:40:42 31° NE 01:40:42 31° NE 01:45:09 10° NNE visible
9 Apr 7.8 03:27:20 27° NW 03:27:20 27° NW 03:31:18 10° NNW visible
10 Apr 9.1 00:46:50 13° ENE 00:46:50 13° ENE 00:49:02 10° NE visible
10 Apr 7.3 02:33:28 48° NNW 02:33:28 48° NNW 02:38:17 10° N visible
11 Apr 8.0 01:39:36 34° NE 01:39:36 34° NE 01:44:10 10° NNE visible
11 Apr 7.9 03:26:13 24° WNW 03:26:13 24° WNW 03:30:01 10° NNW visible
12 Apr 9.0 00:45:44 15° ENE 00:45:44 15° ENE 00:48:33 10° NE visible
12 Apr 7.3 02:32:21 46° NNW 02:32:21 46° NNW 02:37:08 10° N visible
13 Apr 7.9 01:38:30 38° NE 01:38:30 38° NE 01:43:11 10° N visible
13 Apr 8.1 03:25:07 22° WNW 03:25:07 22° WNW 03:28:40 10° NNW visible
